Location: San Antonio de Areco
(34.2500°S, 59.4670°W)
Time: 19:18:23
(UTC-03:00)

ISS - Visible Passes

Search period start: 27 September 2016 00:00
Search period end: 07 October 2016 00:00
Orbit: 400 x 410 km, 51.6° (Epoch: 28 September)

Date Brightness Start Highest point End Pass type
(mag) Time Alt. Az. Time Alt. Az. Time Alt. Az.
01 Oct -0.6 05:57:51 10° N 06:00:14 19° NE 06:02:40 10° E visible
03 Oct -2.6 05:49:03 10° NNW 05:52:18 53° NE 05:55:35 10° SE visible
04 Oct -1.3 04:58:51 18° NNE 05:00:17 24° NE 05:03:04 10° ESE visible
05 Oct -0.1 04:09:13 11° ENE 04:09:13 11° ENE 04:09:36 10° ENE visible
05 Oct -2.9 05:41:54 15° WNW 05:44:28 51° SW 05:47:46 10° SE visible
06 Oct -3.3 04:52:08 70° NNE 04:52:19 72° NE 04:55:40 10° SE visible
